AKDT,Max TemperatureF,Mean TemperatureF,Min TemperatureF,Max Dew PointF,MeanDew PointF,Min DewpointF,Max Humidity, Mean Humidity, Min Humidity, Max Sea Level PressureIn, Mean Sea Level PressureIn, Min Sea Level PressureIn, Max VisibilityMiles, Mean VisibilityMiles, Min VisibilityMiles, Max Wind SpeedMPH, Mean Wind SpeedMPH, Max Gust SpeedMPH,PrecipitationIn, CloudCover, Events, WindDirDegrees
2011-10-1,53,48,42,42,39,35,92,73,54,30.01,29.96,29.90,10,10,7,16,9,21,0.01,5,Fog-Rain,111
2011-10-2,50,40,30,40,34,30,100,86,71,29.99,29.94,29.83,10,7,0,10,1,12,0.00,4,Fog,219
2011-10-3,49,39,28,40,34,29,100,81,61,29.81,29.59,29.32,10,10,1,9,2,10,0.00,5,Fog,251
2011-10-4,49,40,31,45,39,31,100,93,86,29.60,29.44,29.29,10,10,10,12,2,13,0.01,7,Rain,250
2011-10-5,51,44,37,44,41,38,100,90,80,29.77,29.68,29.61,10,4,0,14,2,16,T,7,Fog-Rain,88
2011-10-6,46,45,44,44,43,42,100,93,86,29.84,29.78,29.75,10,9,5,22,12,28,0.14,8,Rain,94
2011-10-7,49,47,44,46,44,43,93,90,86,30.01,29.96,29.86,10,10,7,17,9,20,0.10,8,Rain,91
2011-10-8,47,45,42,45,43,42,100,93,86,29.96,29.64,29.42,10,9,7,12,2,16,0.06,8,Rain,77
2011-10-9,46,44,41,44,43,41,100,93,86,29.70,29.62,29.45,10,9,7,16,7,21,0.17,8,Rain,87
2011-10-10,52,43,34,42,40,36,100,80,59,29.64,29.44,29.28,10,9,1,9,1,16,T,7,Fog,285
2011-10-11,47,40,33,45,39,33,100,88,76,29.49,29.36,29.29,10,9,5,6,0,6,0.06,7,Fog-Rain,260
2011-10-12,48,46,43,46,45,43,100,97,93,29.96,29.72,29.51,10,7,3,18,5,25,0.58,8,Rain,103
2011-10-13,45,43,40,45,42,39,100,95,89,30.12,30.06,29.98,10,10,7,14,7,18,0.30,7,Rain,84
2011-10-14,44,43,41,41,39,39,100,92,83,30.12,30.07,30.00,10,10,9,17,8,21,0.06,8,Rain,88
2011-10-15,43,42,41,40,39,38,96,90,85,30.00,29.94,29.89,10,8,5,21,15,29,0.75,8,Rain,111
2011-10-16,46,44,41,42,41,39,100,93,83,29.93,29.91,29.89,10,10,7,12,10,,0.02,7,Rain,94
2011-10-17,43,41,38,45,41,37,100,100,100,29.95,29.87,29.65,10,6,0,7,1,8,0.08,8,Fog-Rain,114
2011-10-18,48,44,41,45,43,39,100,92,83,29.81,29.72,29.60,10,8,1,23,12,30,0.52,8,Fog-Rain,94
2011-10-19,45,41,37,43,39,35,100,92,83,29.94,29.85,29.80,10,8,2,18,3,25,0.51,8,Rain,60
2011-10-20,42,38,34,40,39,36,100,93,86,29.98,29.94,29.84,10,10,9,18,10,23,0.01,7,Rain,95
2011-10-21,44,37,29,40,33,30,100,90,79,29.82,29.59,29.47,10,6,0,24,7,30,0.05,7,Fog-Rain,113
2011-10-22,45,44,42,41,41,39,96,90,83,29.67,29.58,29.49,10,10,7,21,15,28,0.11,8,Rain,108
2011-10-23,44,43,42,41,40,39,96,90,83,29.89,29.77,29.69,10,9,6,21,12,28,0.19,8,Rain,105
2011-10-24,45,44,42,42,42,41,100,95,89,30.21,30.08,29.91,10,10,8,14,9,17,0.08,8,Rain,77
2011-10-25,45,43,40,41,40,37,96,90,83,30.21,29.89,29.44,10,8,4,45,24,56,0.99,8,Rain,111
2011-10-26,43,42,40,39,38,37,93,88,82,29.87,29.59,29.45,10,10,6,21,11,25,0.22,8,Rain,96
2011-10-27,42,41,40,39,38,37,100,91,82,29.92,29.79,29.38,10,10,8,28,13,33,0.26,8,Rain,95
2011-10-28,43,41,39,40,38,34,93,82,70,29.54,29.27,29.07,10,10,9,16,6,23,0.08,8,Rain,152
2011-10-29,44,43,41,42,40,38,96,89,82,29.54,29.40,29.33,10,8,4,39,21,49,0.55,8,Rain,109
2011-10-30,43,42,41,41,39,33,93,88,82,29.80,29.48,29.37,10,8,5,35,20,44,0.42,8,Rain,118
2011-10-31,41,39,36,41,36,30,100,83,65,30.14,30.03,29.83,10,8,3,24,7,30,0.13,8,Rain,96